TimeEST,TemperatureF,Dew PointF,Humidity,Sea Level PressureIn,VisibilityMPH,Wind Direction,Wind SpeedMPH,Gust SpeedMPH,PrecipitationIn,Events,Conditions,WindDirDegrees,DateUTC
12:53 AM,33.1,19.9,59,29.91,10.0,NW,9.2,-,N/A,,Overcast,320,2013-03-02 05:53:00
1:53 AM,33.1,19.9,59,29.91,10.0,WNW,10.4,-,N/A,,Overcast,290,2013-03-02 06:53:00
2:53 AM,32.0,19.9,61,29.90,10.0,NW,8.1,-,N/A,,Overcast,320,2013-03-02 07:53:00
3:53 AM,32.0,19.0,59,29.89,10.0,NNW,8.1,-,N/A,,Overcast,330,2013-03-02 08:53:00
4:53 AM,30.9,19.0,61,29.90,10.0,NW,6.9,-,N/A,,Overcast,310,2013-03-02 09:53:00
5:53 AM,30.9,19.0,61,29.91,10.0,NW,13.8,-,N/A,,Overcast,320,2013-03-02 10:53:00
6:53 AM,30.9,19.0,61,29.91,10.0,WNW,9.2,-,N/A,,Overcast,300,2013-03-02 11:53:00
7:53 AM,30.0,18.0,61,29.91,10.0,NNW,9.2,-,N/A,,Overcast,330,2013-03-02 12:53:00
8:53 AM,30.0,19.0,64,29.92,6.0,NNW,6.9,-,0.00,Snow,Light Snow,330,2013-03-02 13:53:00
9:34 AM,30.2,19.4,64,29.90,7.0,NW,6.9,-,0.00,,Overcast,310,2013-03-02 14:34:00
9:53 AM,30.9,19.0,61,29.92,9.0,NW,6.9,-,0.00,,Overcast,320,2013-03-02 14:53:00
10:53 AM,30.9,18.0,59,29.90,10.0,NNW,9.2,-,N/A,,Overcast,330,2013-03-02 15:53:00
11:53 AM,33.1,18.0,54,29.89,10.0,NW,10.4,17.3,N/A,,Overcast,310,2013-03-02 16:53:00
12:53 PM,34.0,19.0,54,29.87,10.0,NNW,10.4,-,N/A,,Overcast,330,2013-03-02 17:53:00
1:53 PM,34.0,19.9,56,29.85,10.0,NNW,10.4,17.3,N/A,,Overcast,340,2013-03-02 18:53:00
2:53 PM,35.1,21.9,59,29.85,9.0,NNW,10.4,16.1,0.00,,Overcast,340,2013-03-02 19:53:00
3:53 PM,34.0,21.9,61,29.85,10.0,NNW,10.4,-,0.00,,Overcast,330,2013-03-02 20:53:00
4:53 PM,33.1,21.9,64,29.86,10.0,NNW,10.4,-,N/A,,Overcast,340,2013-03-02 21:53:00
5:53 PM,32.0,19.9,61,29.88,10.0,NW,11.5,-,N/A,,Overcast,320,2013-03-02 22:53:00
6:53 PM,30.9,18.0,59,29.89,10.0,WNW,10.4,-,N/A,,Partly Cloudy,300,2013-03-02 23:53:00
7:53 PM,30.9,17.1,57,29.89,10.0,NW,10.4,-,N/A,,Mostly Cloudy,320,2013-03-03 00:53:00
8:53 PM,30.9,17.1,57,29.90,10.0,NNW,8.1,-,N/A,,Overcast,330,2013-03-03 01:53:00
9:53 PM,30.9,19.0,61,29.90,10.0,NNW,9.2,-,N/A,,Overcast,340,2013-03-03 02:53:00
10:53 PM,30.0,17.1,59,29.90,10.0,WNW,12.7,-,0.00,,Overcast,290,2013-03-03 03:53:00
11:53 PM,30.0,16.0,56,29.89,10.0,WNW,11.5,-,N/A,,Overcast,300,2013-03-03 04:53:00